Marshalltown, IA

4:03 PM CST on December 12, 2019 (GMT -0600)
Marshalltown Municipal

Weather History for KMIW - October, 2019

Change the Weather History Date:

Monday, October 21, 2019

  Actual Average Record
Temperature  
Mean Temperature 50 °F 48 °F  
Max Temperature 55 °F 59 °F 75 °F (1999)
Min Temperature 44 °F 37 °F 22 °F (2018)
Degree Days  
Heating Degree Days 15 17  
Month to date heating degree days 314 281  
Since 1 July heating degree days 365 441  
Cooling Degree Days 0 0  
Month to date cooling degree days 4 10  
Year to date cooling degree days 734 728  
Moisture  
Dew Point 48 °F    
Average Humidity 89    
Maximum Humidity 100    
Minimum Humidity 77    
Precipitation  
Precipitation 1.18 in 0.10 in 1.32 in (2017)
Month to date precipitation 4.61 1.55  
Sea Level Pressure  
Sea Level Pressure 29.41 in    
Wind  
Wind Speed 18 mph (SSE)    
Max Wind Speed 31 mph    
Max Gust Speed 48 mph    
Visibility 7 miles    
Events Rain , Thunderstorm    
T = Trace of Precipitation, MM = Missing Value Source: NWS Daily Summary

Daily Weather History Graph

Daily Weather History Graph

Search for Another Location

Airport or City:

Astronomy

Oct. 21, 2019 Rise Set
Actual Time 7:31 AM CDT 6:20 PM CDT
Civil Twilight 7:02 AM CDT 6:49 PM CDT
Nautical Twilight 6:29 AM CDT 7:21 PM CDT
Astronomical Twilight 5:57 AM CDT 7:54 PM CDT
Moon No Moon Rise 2:53 PM CDT (10/21)
Length of Visible Light 11h 46m
Length of Day
10h 49m
Waning Gibbous, 48% of the Moon is Illuminated
Oct 21
Waning Gibbous
Oct 27
New
Nov 4
First Quarter
Nov 12
Full
Nov 19
Last Quarter

Hourly Weather History & Observations

Time (CDT) Temp. Windchill Dew Point Humidity Pressure Visibility Wind Dir Wind Speed Gust Speed Precip Events Conditions
12:53 AM 50.0 °F - 46.9 °F 89% 29.62 in 10.0 mi East 9.2 mph - 0.00 in Rain Light Rain
1:28 AM 50.0 °F - 48.0 °F 93% 29.58 in 10.0 mi East 12.7 mph - 0.01 in Rain Light Rain
1:40 AM 50.0 °F - 48.0 °F 93% 29.58 in 10.0 mi East 12.7 mph - 0.02 in Rain Light Rain
1:53 AM 50.0 °F - 48.0 °F 93% 29.58 in 10.0 mi East 11.5 mph - 0.02 in Rain , Thunderstorm Light Rain
2:13 AM 50.0 °F - 48.9 °F 96% 29.61 in 1.8 mi South 4.6 mph - 0.17 in Rain , Thunderstorm Heavy Thunderstorms and Rain
2:36 AM 50.0 °F - 50.0 °F 100% 29.59 in 2.0 mi East 6.9 mph - 0.43 in Rain , Thunderstorm Heavy Thunderstorms and Rain
2:46 AM 50.0 °F - 50.0 °F 100% 29.58 in 3.0 mi East 8.1 mph - 0.48 in Rain , Thunderstorm Rain
2:53 AM 50.0 °F - 50.0 °F 100% 29.57 in 3.0 mi East 10.4 mph - 0.50 in Rain , Thunderstorm Rain
3:01 AM 50.0 °F - 50.0 °F 100% 29.55 in 4.0 mi East 10.4 mph - 0.01 in Rain Rain
3:20 AM 50.0 °F - 50.0 °F 100% 29.53 in 2.5 mi East 11.5 mph - 0.14 in Rain Heavy Rain
3:29 AM 50.0 °F - 50.0 °F 100% 29.52 in 3.0 mi East 13.8 mph - 0.17 in Rain Rain
3:53 AM 50.0 °F - 50.0 °F 100% 29.48 in 5.0 mi East 13.8 mph - 0.23 in Rain Light Rain
4:12 AM 51.1 °F - 51.1 °F 100% 29.45 in 4.0 mi East 10.4 mph - 0.04 in Rain Rain
4:21 AM 51.1 °F - 51.1 °F 100% 29.45 in 5.0 mi East 8.1 mph - 0.05 in Rain Light Rain
4:28 AM 51.1 °F - 51.1 °F 100% 29.45 in 7.0 mi East 10.4 mph - 0.06 in Rain Light Rain
4:46 AM 51.1 °F - 51.1 °F 100% 29.42 in 8.0 mi East 12.7 mph - 0.06 in Rain Light Rain
4:53 AM 51.1 °F - 51.1 °F 100% 29.41 in 8.0 mi East 12.7 mph - 0.06 in   Overcast
5:08 AM 52.0 °F - 52.0 °F 100% 29.41 in 9.0 mi East 13.8 mph - N/A   Overcast
5:53 AM 52.0 °F - 52.0 °F 100% 29.36 in 7.0 mi East 12.7 mph - N/A   Overcast
6:53 AM 52.0 °F - 52.0 °F 100% 29.31 in 5.0 mi East 6.9 mph - N/A   Overcast
7:01 AM 52.0 °F - 52.0 °F 100% 29.31 in 5.0 mi SE 6.9 mph - N/A   Overcast
7:50 AM 53.6 °F - 53.6 °F 100% 29.30 in 6.0 mi SE 9.2 mph - 0.01 in Rain , Thunderstorm Light Rain
7:53 AM 53.1 °F - 53.1 °F 100% 29.31 in 5.0 mi SE 11.5 mph - 0.02 in Rain , Thunderstorm Light Rain
8:00 AM 53.1 °F - 53.1 °F 100% 29.30 in 2.5 mi SE 11.5 mph - 0.05 in Rain Rain
8:23 AM 53.1 °F - 53.1 °F 100% 29.30 in 5.0 mi SE 11.5 mph 19.6 mph 0.13 in Rain Light Rain
8:25 AM 53.1 °F - 53.1 °F 100% 29.30 in 5.0 mi SSE 8.1 mph 17.3 mph 0.13 in Rain Light Rain
8:49 AM 53.6 °F - 53.6 °F 100% 29.31 in 2.5 mi WSW 10.4 mph - 0.19 in Rain Rain
8:53 AM 53.1 °F - 53.1 °F 100% 29.31 in 2.5 mi WSW 11.5 mph - 0.20 in Rain Rain
9:05 AM 52.0 °F - 52.0 °F 100% 29.31 in 3.0 mi WSW 8.1 mph - 0.04 in Rain Light Rain
9:53 AM 54.0 °F - 53.1 °F 97% 29.29 in 10.0 mi SW 10.4 mph - 0.04 in   Partly Cloudy
10:53 AM 52.0 °F - 46.9 °F 83% 29.29 in 10.0 mi SW 16.1 mph 25.3 mph N/A   Clear
11:53 AM 52.0 °F - 45.0 °F 77% 29.29 in 10.0 mi SSW 20.7 mph 32.2 mph N/A   Clear
12:53 PM 50.0 °F - 44.1 °F 80% 29.31 in 10.0 mi SW 23.0 mph 34.5 mph N/A   Scattered Clouds
1:12 PM 50.0 °F - 44.1 °F 80% 29.31 in 10.0 mi SSW 19.6 mph 33.4 mph N/A   Mostly Cloudy
1:53 PM 48.0 °F - 43.0 °F 83% 29.33 in 10.0 mi SW 20.7 mph 35.7 mph N/A   Overcast
2:53 PM 48.0 °F - 42.1 °F 80% 29.34 in 10.0 mi SW 24.2 mph 35.7 mph N/A   Overcast
3:53 PM 48.0 °F - 42.1 °F 80% 29.35 in 10.0 mi SW 23.0 mph 29.9 mph N/A   Overcast
4:53 PM 48.0 °F - 42.1 °F 80% 29.36 in 10.0 mi SSW 20.7 mph 33.4 mph N/A   Overcast
5:53 PM 48.9 °F - 43.0 °F 80% 29.36 in 10.0 mi SW 17.3 mph 31.1 mph N/A   Overcast
6:53 PM 48.0 °F - 46.0 °F 93% 29.36 in 10.0 mi SW 16.1 mph 28.8 mph 0.01 in   Overcast
7:53 PM 45.0 °F 35.6 °F 43.0 °F 93% 29.39 in 10.0 mi West 27.6 mph 36.8 mph 0.05 in   Overcast
8:14 PM 44.1 °F 34.8 °F 42.1 °F 93% 29.39 in 10.0 mi West 25.3 mph 35.7 mph 0.00 in   Overcast
8:31 PM 44.1 °F 35.4 °F 42.1 °F 93% 29.39 in 10.0 mi WSW 21.9 mph 34.5 mph 0.00 in   Overcast
8:53 PM 44.1 °F 35.7 °F 42.1 °F 93% 29.40 in 10.0 mi WSW 20.7 mph 32.2 mph 0.00 in Rain Light Rain
9:53 PM 44.1 °F 35.7 °F 43.0 °F 96% 29.40 in 10.0 mi WSW 20.7 mph 32.2 mph 0.01 in Rain Light Rain
10:53 PM 45.0 °F 36.2 °F 43.0 °F 93% 29.40 in 10.0 mi WSW 24.2 mph 41.4 mph 0.02 in Rain Light Rain
11:53 PM 45.0 °F 35.2 °F 43.0 °F 93% 29.42 in 10.0 mi West 29.9 mph 41.4 mph 0.00 in Rain Light Rain